Location: ???? ?????????
(44.3677°N, 135.2344°E)
Time: 10:57:29
(UTC+00:00)

Okean 3 Rocket - Pass Details

Date: 19 May 2025
Orbit: 610 x 638 km, 82.5° (Epoch: 13 June)

Event Time Altitude Azimuth Distance (km) Brightness Sun altitude
Rises 13:46:16 0° 353° (N) 2,898 8.4 -23.8°
Reaches altitude 10° 13:48:31 10° 356° (N) 1,992 7.2 -23.9°
Enters shadow 13:52:50 68° 73° (ENE) 671 3.6 -24.1°
